RH
63 51 43 42 37 35 35 30 22 23 26 26 30 31 27 24 23 24 29 31 25 23 23 23 24 23 23 22 25 31 36 43 52 64 63 33 8 9 14 15 14 15 12 14 33 38 30 32 32 34 35 39 46 45 44 46 44 54 74 79 77 73 64 54 44 44 47 43 39 37 40 47 41 33 34 33 38 41 42 44 42 41 40 39 43 43 44 49
57 46 42 38 35 39 38 32 31 34 32 26 27 29 26 25 24 25 29 30 26 23 21 22 23 24 24 22 28 36 46 58 71 72 42 10 8 12 9 12 14 17 18 19 29 33 29 30 29 32 36 39 42 41 42 41 40 56 74 75 68 61 56 51 44 41 41 39 38 36 37 44 42 35 33 37 44 43 42 45 41 43 43 40 42 41 43 46
53 46 40 36 38 39 35 38 38 30 24 19 21 28 28 26 24 24 27 28 26 23 20 23 24 28 30 26 32 42 58 70 67 54 22 5 9 6 6 11 14 19 20 17 25 30 26 26 26 29 35 39 40 40 40 37 40 49 59 67 62 50 50 51 45 40 36 34 39 40 36 39 38 32 33 39 45 46 44 43 42 46 47 43 42 40 42 44
50 48 38 34 37 33 32 35 30 20 17 16 17 24 25 23 25 24 24 25 26 24 21 22 27 39 43 35 35 49 69 69 49 30 13 11 13 5 5 8 13 19 18 14 20 26 23 22 23 25 33 38 37 37 37 34 38 48 52 52 49 44 46 49 46 38 33 35 40 41 39 41 39 34 36 40 46 50 46 41 42 47 47 44 42 40 40 43
43 42 33 31 31 27 27 25 21 18 15 14 14 19 20 22 25 23 23 22 24 26 22 25 36 52 57 42 40 63 72 50 26 16 10 13 15 8 7 10 13 16 17 17 19 22 21 19 20 23 29 36 37 36 36 29 28 40 46 38 35 38 43 49 48 39 33 36 41 41 40 38 38 39 37 40 48 50 44 40 41 43 43 42 41 41 40 42
35 34 30 29 27 24 23 19 17 15 13 13 14 16 19 21 23 25 26 23 23 26 26 32 45 63 67 48 50 71 63 31 15 14 11 11 13 12 9 10 12 15 18 20 19 19 20 19 20 23 28 33 36 36 33 28 24 31 36 30 29 33 38 46 46 42 36 35 40 41 36 30 34 40 35 36 44 41 36 37 40 40 39 38 38 41 40 42
33 31 29 28 25 22 19 17 14 13 12 11 11 14 17 19 22 27 28 27 27 25 32 42 51 67 66 54 62 71 59 35 18 15 15 12 11 12 11 10 12 19 21 20 18 17 18 20 21 23 28 32 34 35 30 26 25 28 30 26 28 32 33 38 35 35 35 34 37 37 32 28 31 38 35 34 37 35 33 36 39 39 38 38 39 42 40 41
33 31 29 27 24 20 17 16 12 10 10 9 11 13 15 19 23 29 31 35 32 26 40 50 56 67 65 65 68 59 51 36 17 12 16 14 10 11 16 18 18 22 22 19 17 16 18 19 21 21 27 32 31 32 29 26 24 26 28 23 28 34 28 29 30 30 32 32 33 34 33 28 29 35 34 34 34 32 33 36 39 39 39 40 41 42 41 41
36 33 30 28 24 21 17 15 12 9 9 9 11 12 15 19 24 30 32 37 35 34 47 56 65 73 71 73 64 46 37 23 13 13 14 14 11 11 20 25 25 23 20 18 15 15 16 16 18 19 23 27 28 29 27 26 26 23 24 21 25 32 28 27 29 29 30 28 30 35 37 30 29 33 32 35 34 31 33 37 39 39 40 41 41 43 42 42
38 34 32 30 26 22 17 14 11 9 8 9 11 13 17 21 26 30 32 36 34 39 54 63 76 83 79 73 55 39 27 13 14 16 14 15 11 11 20 24 23 21 17 15 14 13 14 15 15 15 19 22 24 27 25 25 23 18 20 20 20 25 26 28 28 26 27 27 28 34 37 32 31 34 34 36 32 31 36 38 39 40 41 41 41 42 42 42
38 34 32 30 27 23 18 14 11 9 9 10 12 15 19 23 27 29 31 34 33 41 58 67 82 90 82 70 52 35 20 13 15 15 17 16 11 13 18 22 22 20 17 14 14 12 12 14 13 14 18 20 21 24 24 22 19 16 17 19 19 20 21 24 27 25 26 28 25 25 27 24 28 35 33 32 31 33 38 40 41 41 43 42 41 43 44 43
33 31 30 28 26 22 19 15 10 9 8 10 13 17 21 23 26 28 30 35 33 42 61 73 90 96 81 69 55 31 15 14 14 14 20 16 12 12 11 19 21 18 18 14 13 12 11 12 13 17 19 19 22 24 23 19 17 16 15 17 20 20 20 22 23 22 24 28 23 19 26 26 27 31 29 27 30 34 38 41 42 42 43 43 42 44 45 43
31 29 26 24 23 19 17 14 11 9 8 11 15 18 22 23 25 28 33 36 35 46 64 74 90 95 84 70 49 24 14 16 16 16 18 16 16 14 11 15 17 17 16 13 12 11 11 11 14 18 17 18 22 22 20 16 17 17 15 17 20 24 25 21 20 20 21 27 22 21 35 36 25 27 28 25 29 35 39 40 41 41 42 43 43 45 45 43
33 31 26 24 22 18 15 12 10 8 9 13 16 20 22 23 25 30 38 39 39 53 63 71 87 90 83 69 38 19 17 17 20 21 18 16 17 16 14 13 14 15 13 12 12 11 11 11 14 17 16 17 18 18 19 17 17 16 17 18 20 29 29 21 20 21 20 23 22 25 39 37 24 27 28 24 30 36 39 40 40 41 42 43 43 45 45 43
35 33 29 24 21 19 13 11 10 8 11 15 18 21 22 24 27 32 38 38 46 56 58 74 90 82 78 66 34 17 19 22 25 22 18 17 15 16 15 12 13 14 13 12 12 12 13 12 15 17 16 15 15 18 22 21 18 17 23 25 23 30 29 20 19 21 21 21 20 26 37 34 26 29 27 25 30 34 38 39 39 41 41 42 43 44 45 43
36 35 31 24 21 20 15 12 10 9 13 16 19 21 22 23 26 33 35 37 51 60 65 79 86 80 74 55 29 19 23 31 26 15 18 18 13 13 13 12 13 13 14 12 12 13 13 14 15 15 14 14 15 20 24 25 23 19 25 29 26 27 28 24 19 18 20 20 19 24 30 31 27 25 24 26 29 31 35 36 37 41 40 41 44 44 44 44
39 36 32 25 21 20 17 11 9 11 14 16 19 21 22 22 25 34 37 42 57 66 69 66 64 74 67 41 29 24 20 25 22 14 17 17 12 12 11 12 13 13 14 12 13 13 13 15 16 15 14 15 16 19 26 31 30 25 24 27 25 25 27 26 22 17 17 19 20 23 25 26 23 20 22 26 27 29 32 34 36 38 40 42 43 44 44 45
40 36 32 27 22 21 17 11 9 11 14 15 18 21 22 22 25 34 42 54 67 72 73 63 60 65 51 39 41 30 18 18 19 17 16 14 12 11 10 12 13 14 14 13 14 14 15 16 16 17 17 16 15 18 27 30 27 26 25 26 25 23 24 24 22 18 16 19 21 24 26 24 20 18 20 23 25 27 30 33 34 35 39 42 42 44 45 45
40 34 31 27 24 20 15 11 8 10 15 16 18 22 22 20 28 43 49 51 51 50 51 54 63 56 34 32 33 24 20 17 16 16 14 12 11 9 10 13 14 15 15 16 17 15 16 19 20 22 19 18 17 17 22 22 20 23 22 23 24 22 22 21 20 16 15 18 21 23 26 23 20 19 21 22 23 28 31 32 33 33 37 39 40 43 44 45
37 33 30 26 23 18 13 11 8 12 17 15 22 30 23 15 24 37 37 27 20 20 20 24 35 33 21 21 20 17 18 14 14 16 13 11 10 9 10 12 15 15 15 17 18 16 16 23 25 24 20 17 16 15 17 16 16 18 20 21 20 20 21 19 18 16 13 18 21 21 22 22 19 20 23 23 23 27 31 31 32 33 34 36 38 40 43 45
34 32 29 25 22 17 11 10 10 14 16 18 32 35 19 12 17 20 19 16 15 16 16 15 17 18 15 13 13 14 14 12 13 13 13 10 8 10 9 12 18 18 16 16 17 16 17 25 26 22 19 16 14 15 15 16 16 16 19 20 19 19 19 16 16 14 11 16 21 20 20 21 20 19 20 22 24 26 29 30 32 34 34 33 36 38 42 43
34 31 28 25 22 18 11 9 12 15 17 24 34 27 12 12 15 13 15 20 19 15 16 18 16 16 15 13 13 12 13 15 14 12 12 10 7 9 9 13 20 20 16 16 19 21 23 25 23 19 18 16 15 15 14 16 16 17 19 20 21 18 16 14 13 12 12 16 21 21 20 21 21 18 18 19 23 25 26 28 32 35 35 34 34 37 41 43
33 29 26 23 21 19 11 10 15 17 23 32 30 18 12 14 13 13 17 23 24 19 17 18 18 18 17 15 13 12 13 15 15 13 10 9 8 8 12 17 22 21 19 20 23 25 26 23 19 17 17 17 17 15 15 16 16 19 21 22 23 18 15 16 12 11 13 15 18 20 21 21 21 20 19 17 19 25 25 25 30 34 35 34 33 36 40 43
31 27 25 21 21 19 11 12 18 19 30 36 26 16 16 16 14 15 19 24 26 22 19 18 18 18 18 15 13 12 14 13 14 14 9 9 8 7 13 19 23 24 22 22 23 23 23 19 16 17 18 19 19 17 16 17 18 19 20 22 21 16 15 15 12 11 13 15 16 19 24 25 23 23 21 18 18 23 26 25 28 33 35 34 33 36 39 41
30 28 24 20 21 21 14 15 18 23 34 33 21 17 18 15 15 17 21 29 33 25 19 19 18 17 16 15 13 10 10 11 11 12 9 7 8 9 13 17 22 25 22 21 21 22 20 17 16 18 20 20 19 18 17 18 20 19 18 18 17 15 14 13 11 10 16 21 17 17 29 33 27 23 21 21 20 22 27 28 28 32 36 36 34 37 39 40
30 28 23 22 21 23 23 18 20 30 37 29 19 19 19 16 15 15 22 36 40 27 19 21 20 16 14 13 13 10 9 11 10 10 11 8 6 9 13 16 19 22 20 18 19 20 18 17 17 18 20 20 20 19 16 15 19 20 17 14 14 14 14 14 12 11 18 25 18 15 29 37 30 23 21 22 21 21 26 30 31 32 36 36 34 35 37 39
31 26 24 24 19 29 41 33 31 39 36 27 21 20 18 17 15 15 28 44 40 22 17 21 18 12 12 12 12 10 9 10 10 9 11 9 6 7 13 17 18 19 17 18 22 22 18 19 18 16 17 19 20 20 16 15 18 19 15 12 13 14 15 16 13 12 15 19 19 15 21 33 34 27 21 20 21 22 24 29 34 34 35 35 33 34 36 38
30 24 23 24 19 32 47 45 46 45 35 25 19 19 18 17 16 18 33 42 25 12 15 16 14 12 11 11 10 9 8 9 12 11 10 10 8 7 12 15 17 20 16 19 26 22 17 20 18 14 14 16 19 18 15 15 16 16 13 12 13 13 14 15 14 14 11 14 24 21 17 29 37 30 23 20 21 24 24 27 33 36 35 35 33 34 36 37
27 22 23 26 23 30 39 43 50 44 29 21 18 19 17 17 18 22 41 44 19 10 17 13 13 14 11 12 11 8 6 7 11 11 9 11 9 8 12 12 14 18 17 18 22 18 15 15 13 12 12 12 14 14 12 13 14 13 11 12 13 12 13 14 13 14 13 17 27 24 18 27 36 31 25 23 22 23 22 23 29 35 34 34 34 34 35 35
26 21 23 28 29 32 38 40 39 31 22 18 18 18 15 18 22 32 52 47 19 13 18 14 15 15 13 15 14 9 7 6 7 9 10 12 11 8 10 11 11 14 16 17 18 16 13 11 11 10 9 9 10 11 10 10 11 11 11 13 13 12 12 14 13 13 16 20 23 18 15 23 33 31 25 24 21 19 20 19 26 35 35 34 34 33 33 35
25 19 23 30 31 36 46 42 29 26 24 17 16 16 17 21 27 38 44 30 15 17 19 17 17 15 15 17 16 14 10 7 5 8 11 13 13 11 11 12 13 14 16 17 17 16 13 12 12 10 8 8 9 10 10 9 9 10 12 14 15 14 13 14 15 15 19 21 18 13 10 16 27 28 22 20 18 16 18 17 23 35 37 35 35 33 33 35
26 20 23 30 33 38 47 41 29 31 26 14 15 18 20 27 30 34 31 20 22 24 19 18 17 16 17 15 16 16 14 12 7 7 11 13 15 14 14 15 15 18 19 17 16 16 14 13 11 10 9 8 9 11 11 10 10 11 13 15 17 19 17 17 20 18 18 19 14 10 10 12 18 20 18 17 16 16 17 14 19 32 37 35 35 33 33 34
29 21 26 32 36 42 43 37 33 33 22 13 19 19 22 34 36 31 26 24 27 24 17 18 16 15 17 15 15 15 15 15 10 8 9 11 15 15 14 13 12 16 19 15 14 16 16 14 11 10 10 9 9 11 13 13 11 12 14 15 18 20 20 21 21 17 16 17 11 7 10 12 13 15 15 13 13 14 15 13 16 29 35 33 33 32 31 33
32 23 30 32 34 39 36 35 35 26 16 16 22 21 23 33 33 28 25 25 24 21 17 17 16 16 16 15 16 15 18 18 13 13 12 10 15 17 15 14 12 12 14 14 13 13 17 18 13 11 11 10 10 10 10 11 11 11 11 12 16 17 18 20 18 15 17 18 13 8 9 13 14 14 12 10 10 10 13 12 14 26 31 28 28 30 30 32
36 29 34 35 35 35 28 29 29 20 17 21 24 27 30 31 28 25 25 24 23 21 18 16 17 18 17 17 17 15 18 19 18 22 21 14 14 15 15 15 13 12 13 15 14 11 15 17 12 10 10 9 10 9 8 9 10 10 8 10 14 13 14 17 16 13 16 20 18 12 11 13 15 13 9 9 8 7 11 12 13 23 28 24 25 30 32 32
44 41 41 40 38 33 22 19 19 17 21 25 29 35 36 32 27 23 22 21 20 19 20 20 19 20 21 21 20 16 16 20 23 28 28 22 16 13 13 14 12 13 13 14 15 12 14 15 10 10 11 9 9 9 7 9 11 10 9 10 11 9 10 15 17 14 14 20 21 15 13 13 11 11 8 8 9 7 9 9 10 19 25 23 25 29 31 32
57 56 54 46 37 29 20 15 16 21 24 27 34 36 31 26 20 17 18 18 17 17 21 25 23 23 26 26 23 20 21 23 25 30 33 29 23 16 15 15 12 13 14 13 14 13 14 16 11 10 11 9 8 8 7 8 9 9 10 9 9 9 8 11 18 20 19 21 19 13 13 15 14 13 10 8 9 8 9 8 8 15 21 23 26 28 30 30
65 63 59 45 32 25 19 15 16 20 24 30 35 30 22 20 15 14 17 15 16 17 20 26 24 23 27 30 28 24 27 29 28 32 36 32 28 24 24 27 24 22 22 19 17 13 12 16 13 9 11 10 7 9 10 9 8 8 9 8 9 11 13 13 16 20 24 23 18 14 13 13 14 14 10 8 8 8 10 9 7 12 19 22 27 29 28 28
61 58 48 27 20 19 16 15 16 20 27 32 34 27 19 16 14 14 16 15 16 18 22 24 23 24 26 27 29 27 30 35 33 35 37 35 31 26 27 35 35 31 31 29 26 18 12 17 17 10 9 9 9 11 13 11 9 9 8 8 9 10 14 16 13 14 22 24 21 19 15 14 16 14 9 7 7 7 11 12 10 13 18 21 24 27 27 27
59 60 49 23 19 22 16 15 17 24 30 28 25 23 17 14 13 14 14 14 15 18 22 23 22 25 26 24 27 28 30 36 37 37 36 31 30 29 29 35 38 35 33 31 28 20 13 16 19 14 9 10 11 11 12 12 11 10 11 10 9 9 10 13 12 11 16 23 25 23 21 20 17 12 8 8 8 7 9 12 12 14 18 20 22 24 26 27
58 57 48 24 22 26 19 17 20 24 25 20 19 18 16 16 15 14 14 13 15 16 18 20 21 23 24 24 25 27 32 37 38 37 34 29 35 42 38 35 37 36 36 36 32 26 21 17 18 17 13 11 11 10 9 10 10 10 11 10 8 9 10 12 16 13 10 15 22 24 26 27 18 11 9 8 7 8 9 10 12 13 16 19 21 21 24 27
56 54 44 28 29 30 22 20 22 22 19 18 19 17 18 20 16 14 16 15 16 17 16 19 22 21 23 25 25 27 31 35 37 37 37 37 42 46 40 34 35 35 37 40 35 34 35 27 20 19 16 12 9 8 9 9 8 9 10 9 8 8 9 14 21 19 12 11 14 14 20 27 23 15 13 10 7 8 9 9 12 11 11 17 21 20 21 25
59 60 48 36 33 29 24 25 26 23 20 19 18 17 19 19 15 15 18 18 19 19 20 24 25 25 26 25 26 28 28 34 40 39 42 50 49 43 39 35 35 34 37 39 36 40 44 33 24 21 17 14 11 7 9 9 9 10 10 8 8 7 8 11 18 20 15 12 13 13 17 27 29 19 12 11 9 8 9 10 12 11 10 17 22 20 20 24
64 60 47 39 33 28 28 29 28 26 22 20 19 21 22 19 16 17 20 22 21 22 27 29 26 27 26 23 28 29 27 39 50 44 48 62 57 45 40 37 36 37 37 38 38 44 49 43 37 35 26 21 19 14 11 12 11 11 11 9 8 8 7 8 13 17 17 15 14 14 19 27 29 22 13 11 10 9 8 8 10 9 10 18 22 21 21 23
64 58 45 37 36 36 36 34 34 31 23 22 23 23 24 23 20 20 22 23 21 22 31 32 27 26 25 25 31 30 30 49 66 62 60 66 60 47 42 39 38 36 33 36 39 41 46 45 45 50 43 32 29 26 19 15 13 12 11 9 8 8 7 9 13 17 23 23 17 16 21 21 20 18 13 11 11 10 9 12 15 17 21 23 21 22 23 22
63 64 55 51 47 42 42 42 44 44 37 33 30 25 27 31 27 22 21 23 22 22 28 31 30 29 28 30 36 34 34 48 66 69 66 68 64 53 46 42 37 33 34 40 40 37 40 39 39 51 54 44 40 36 23 13 13 13 12 9 9 8 7 10 14 19 30 31 23 23 26 19 13 13 12 10 11 14 17 23 27 31 35 30 22 23 25 22
58 63 62 74 73 58 56 55 53 57 54 46 39 32 33 37 33 26 23 23 24 24 28 32 34 34 35 39 42 42 41 46 56 63 66 68 66 56 48 43 37 35 38 40 37 36 41 41 35 39 43 38 34 30 20 13 12 12 12 10 9 7 8 10 12 19 30 30 25 29 30 23 16 13 13 14 13 17 24 27 29 32 34 32 26 24 24 24
59 61 57 75 84 75 76 73 64 63 57 47 39 35 37 38 36 33 28 24 24 25 32 38 37 34 36 40 44 46 49 52 57 63 68 69 67 64 59 49 38 35 39 39 36 35 39 40 34 31 33 29 24 21 19 16 13 10 11 11 9 7 8 10 12 17 24 28 34 39 33 24 19 13 14 18 16 18 22 23 24 28 29 30 28 24 24 29
63 68 63 70 80 80 81 75 66 62 54 47 42 38 39 42 42 39 32 29 30 30 36 44 40 35 34 37 43 48 50 55 62 66 67 66 66 70 71 61 47 41 42 44 40 35 38 41 35 30 32 30 24 22 21 18 16 14 12 10 10 9 7 8 10 13 17 20 29 38 33 24 17 12 13 18 16 16 19 20 22 25 26 28 27 24 28 34
77 85 83 86 87 81 78 71 66 65 58 51 47 39 36 40 42 38 33 34 39 37 37 42 40 36 35 36 42 47 44 46 57 60 58 60 66 70 72 68 58 50 47 47 44 39 40 40 32 29 37 38 30 26 24 19 17 18 16 12 10 9 8 7 8 10 16 16 18 29 34 25 15 13 17 20 19 19 19 19 21 24 24 24 23 23 29 36
84 86 85 96 95 81 78 74 69 73 68 54 47 43 40 39 35 34 36 35 37 40 38 38 39 37 37 38 40 42 36 34 41 42 40 47 55 59 62 60 55 53 52 50 48 45 42 38 30 31 45 47 37 33 29 20 17 19 19 17 16 12 9 8 7 8 15 17 18 26 31 22 15 17 19 20 20 21 22 21 21 22 23 23 22 23 28 34
86 86 84 96 98 84 81 81 75 77 73 57 51 53 51 43 33 38 51 44 34 36 35 33 39 41 42 45 42 36 31 29 30 29 27 32 36 40 47 48 45 48 51 51 53 48 42 38 32 34 47 47 38 36 31 23 26 31 24 18 18 17 12 7 7 8 12 14 20 28 29 23 19 18 18 21 21 21 23 25 25 24 23 22 22 23 28 33
Wind_Speed
27 29 30 31 31 32 32 32 33 32 30 31 31 30 31 30 29 28 26 23 22 21 20 21 22 22 22 21 20 20 19 18 18 12 15 28 32 24 17 16 9 7 16 16 13 13 13 14 15 18 15 10 8 6 8 10 6 3 2 2 4 3 4 3 3 3 4 7 6 6 4 6 6 9 10 11 13 12 12 12 13 12 14 18 23 30 33 36
29 31 32 33 33 33 34 34 33 32 31 33 33 32 33 32 30 28 26 23 22 22 22 22 23 23 22 20 18 17 16 18 17 16 29 37 31 26 21 18 15 10 14 20 18 16 13 11 14 16 11 6 7 8 8 9 7 4 2 3 4 4 4 3 3 4 4 6 8 7 6 7 8 12 10 9 10 6 7 11 14 15 17 20 26 30 32 35
31 32 34 34 34 35 35 34 34 34 34 35 35 34 34 33 30 29 27 24 23 24 24 23 23 22 21 18 15 12 12 15 11 17 29 28 27 32 28 18 17 16 16 22 22 20 16 14 17 14 9 7 7 9 9 7 8 5 3 3 6 6 5 4 3 6 5 5 7 6 5 3 9 11 8 9 11 6 6 12 15 16 19 21 22 26 30 31
32 33 35 35 35 36 37 36 36 37 36 36 36 35 35 33 31 29 27 25 25 25 25 24 23 20 18 16 11 7 8 10 6 11 15 13 15 26 32 28 20 19 19 21 22 20 19 17 17 13 9 8 7 10 10 8 7 3 3 6 8 7 6 5 5 7 5 2 3 6 7 3 5 5 7 11 11 7 6 12 17 19 22 22 21 23 26 26
34 34 36 36 36 38 38 38 38 37 37 37 37 37 36 33 32 30 27 26 26 26 26 24 21 17 15 11 4 3 4 4 1 1 8 9 6 14 28 33 25 21 20 20 20 20 20 16 13 12 9 7 8 9 9 11 9 4 8 13 10 7 7 6 7 6 5 2 3 5 7 6 7 4 10 13 10 7 7 12 18 21 22 22 22 21 21 22
36 36 37 37 37 38 39 39 39 38 39 38 37 37 36 34 32 30 27 27 27 26 25 22 18 14 11 5 3 1 2 2 4 4 8 12 4 8 21 30 28 23 21 20 19 17 15 14 12 10 8 7 10 9 10 12 11 6 8 13 11 9 8 5 7 6 6 6 4 5 4 7 12 7 9 12 10 9 11 16 19 19 20 21 22 21 19 19
36 37 37 38 38 39 39 40 40 39 39 39 38 37 35 34 32 29 27 27 27 26 24 19 15 11 5 2 4 2 2 8 16 8 4 11 9 6 18 26 29 25 22 19 16 13 11 13 13 9 9 8 9 11 12 13 13 9 7 10 9 11 10 6 7 7 9 9 8 7 4 7 11 6 6 9 11 12 14 18 20 18 19 18 18 20 19 18
37 37 37 38 39 39 40 40 40 40 40 39 38 37 35 34 32 29 27 27 27 26 21 15 12 8 1 3 2 3 5 17 23 13 13 11 5 4 20 26 29 26 22 21 17 13 11 12 13 10 9 9 9 11 12 12 12 11 10 10 8 11 10 7 8 8 9 10 10 6 4 6 8 6 9 11 13 14 16 18 20 19 19 18 17 18 17 17
37 38 38 39 39 40 40 40 40 40 40 39 38 36 35 33 31 29 28 27 27 23 18 12 10 6 2 2 3 3 9 20 19 10 14 16 6 7 21 26 28 26 20 21 19 15 11 10 13 11 9 9 10 11 12 11 8 10 13 11 9 13 11 10 10 12 10 7 7 6 4 5 5 9 12 16 16 15 17 19 20 19 19 18 17 18 15 15
39 39 39 40 40 41 41 41 40 40 40 39 38 36 35 33 31 30 29 28 26 21 16 10 8 3 3 4 4 4 10 13 13 15 18 16 13 15 22 26 29 26 18 18 19 16 12 10 11 10 8 8 10 11 12 11 8 10 14 13 12 12 12 11 11 12 9 8 10 10 8 8 7 7 9 15 17 18 19 19 19 18 17 17 17 17 14 12
40 40 41 41 41 42 42 41 41 40 40 38 38 37 35 33 31 31 30 28 23 17 14 10 6 3 6 5 4 6 10 7 10 12 23 19 18 21 24 26 28 28 19 15 17 19 18 16 13 8 7 7 8 11 11 13 11 12 13 13 13 11 10 11 12 14 10 8 11 10 10 11 10 7 10 16 18 19 20 19 19 18 15 16 17 15 13 11
40 40 41 41 41 42 43 42 42 40 40 38 37 37 36 33 31 32 31 26 19 13 12 9 4 5 7 4 9 18 15 11 13 7 19 21 21 21 22 25 27 29 23 14 16 23 24 22 18 10 7 6 7 8 7 12 13 13 13 9 11 10 9 9 10 13 10 6 10 10 8 7 7 8 15 18 19 21 21 19 18 17 14 14 15 13 12 13
40 40 40 40 41 42 42 42 42 41 40 38 37 37 35 34 32 32 30 22 14 11 11 8 5 7 6 3 15 28 24 21 22 19 16 16 20 20 20 25 25 27 27 19 17 23 26 25 20 13 9 7 7 6 5 10 11 11 12 7 6 7 7 9 9 11 9 7 9 8 5 6 6 11 20 19 20 23 19 18 17 15 14 13 13 12 13 14
41 41 41 41 41 41 41 41 41 40 39 37 36 36 35 34 31 29 25 16 10 9 10 5 6 8 6 7 17 23 24 26 26 25 23 17 21 21 21 24 23 25 27 23 20 22 26 27 20 11 9 9 7 6 8 9 7 8 9 6 5 4 4 9 11 12 11 9 11 6 3 6 5 12 22 20 22 24 19 18 17 14 14 13 13 13 13 13
42 43 43 43 43 42 41 41 40 38 37 36 35 35 35 32 27 26 22 12 8 8 6 2 8 8 4 10 18 20 19 23 28 28 23 19 19 21 21 24 22 24 25 24 24 22 23 23 15 8 7 8 8 8 8 7 5 6 6 5 5 4 4 8 11 13 11 9 15 12 5 5 2 8 18 21 23 23 18 18 18 16 16 14 13 13 13 12
43 44 44 43 44 44 43 42 40 37 35 35 34 34 33 27 23 24 17 7 6 5 1 2 10 10 4 7 11 14 11 15 23 29 24 20 18 16 21 24 20 22 24 24 24 21 19 16 9 7 7 7 8 7 5 5 5 5 4 4 4 5 5 6 8 12 13 11 14 14 5 3 5 7 16 22 25 23 18 18 19 17 17 15 12 13 12 11
43 44 43 43 43 44 44 42 39 35 34 35 33 34 32 22 20 19 9 2 4 4 5 5 7 8 7 10 10 11 8 13 18 21 21 22 21 18 19 18 14 16 18 20 21 17 14 10 6 6 7 6 6 5 5 7 6 4 4 5 5 6 7 7 8 10 15 13 12 13 7 4 8 8 17 24 25 22 18 17 18 16 15 14 12 13 13 12
44 44 44 43 43 44 43 42 38 33 34 35 32 35 30 19 18 14 4 1 1 4 7 8 6 4 6 8 7 10 10 10 16 19 20 22 23 23 17 12 11 13 12 12 14 12 9 7 6 5 6 7 8 7 8 7 7 7 6 5 6 8 8 8 8 9 15 17 12 12 9 9 9 7 16 22 23 21 18 16 15 14 15 14 13 13 13 13
44 44 45 45 44 44 42 42 37 31 33 33 32 31 20 12 13 7 3 2 1 3 5 4 5 4 8 10 10 14 18 17 14 21 20 22 23 22 18 13 12 13 11 8 10 11 7 5 6 7 8 10 11 11 9 7 8 12 10 7 8 8 8 8 10 11 12 15 13 12 11 11 10 7 11 14 17 18 17 17 14 14 14 14 14 13 14 14
45 45 46 45 45 44 41 41 36 29 31 34 34 26 11 8 8 1 2 5 6 9 12 11 10 11 16 18 18 19 22 25 12 17 22 23 21 17 13 11 12 11 11 9 9 10 8 6 9 11 11 12 14 14 12 10 12 14 12 9 10 10 8 9 13 15 10 11 11 12 12 12 11 8 10 13 14 15 18 19 16 15 14 14 15 15 15 16
45 45 46 45 44 43 41 40 34 26 28 32 28 15 6 10 9 6 11 11 10 12 17 20 18 18 20 20 24 21 14 18 15 9 21 24 18 13 10 11 12 10 11 12 9 8 8 10 13 14 12 12 14 14 13 13 14 14 12 10 8 9 9 12 15 15 11 9 9 13 12 12 12 10 10 14 16 15 18 18 16 17 15 13 15 16 16 14
46 45 47 45 44 43 40 38 30 23 25 27 19 8 8 14 13 16 17 12 11 13 19 24 22 21 22 24 34 27 8 11 18 15 17 23 15 12 11 12 13 10 11 12 8 8 9 13 16 14 12 13 13 14 15 16 15 12 9 8 8 7 6 11 15 12 11 7 6 13 11 9 13 12 10 13 14 14 18 18 16 18 16 14 15 15 15 14
45 46 47 44 43 42 38 35 25 20 24 24 17 11 14 21 23 23 16 10 13 14 18 22 21 19 19 21 30 25 11 11 15 16 15 20 14 12 12 12 14 11 12 14 11 9 10 13 15 13 12 15 15 14 16 15 12 10 8 8 8 10 8 6 10 10 12 9 7 11 9 7 11 13 11 12 12 14 19 18 17 18 17 16 16 16 16 16
45 47 46 44 43 39 36 30 19 22 28 23 17 17 22 26 26 25 14 6 11 14 16 20 17 15 19 19 18 16 11 11 11 13 15 18 13 11 13 12 14 12 12 16 17 14 13 9 11 15 15 16 16 15 15 11 9 11 11 10 9 12 12 9 8 8 10 10 8 9 6 5 8 10 11 11 11 15 19 19 17 17 17 16 16 16 17 18
46 46 45 44 40 38 34 21 15 28 31 20 18 24 28 27 26 26 14 4 7 9 9 10 10 9 18 21 15 10 9 11 13 12 13 17 15 11 11 10 10 13 14 18 17 15 15 9 12 17 16 16 16 14 15 12 8 10 14 15 14 13 14 14 13 9 5 7 8 9 4 4 7 10 10 11 12 14 19 21 19 18 17 16 15 15 17 17
47 46 45 42 36 38 29 9 16 32 24 14 21 28 30 27 29 27 12 3 6 6 1 2 5 4 8 12 10 7 8 11 14 17 16 16 18 11 9 8 6 12 15 14 12 8 11 11 11 16 16 17 16 13 15 15 8 8 11 16 18 16 14 15 15 9 4 5 9 11 6 3 5 9 10 12 15 15 18 22 20 18 17 17 15 14 16 15
48 45 44 39 34 34 21 8 21 26 12 14 26 30 29 28 31 25 7 2 4 3 2 2 1 1 0 5 12 9 6 5 9 18 18 16 17 12 10 10 7 10 10 8 9 8 11 15 14 15 16 15 14 11 14 16 11 7 10 15 18 18 17 16 14 9 4 5 9 13 9 4 4 8 11 12 13 12 16 20 20 18 18 20 18 16 17 16
47 45 41 36 30 25 16 16 21 15 10 20 28 28 29 30 29 16 3 2 3 4 5 4 6 6 8 4 14 12 5 8 9 14 17 18 18 13 12 14 10 11 12 10 10 8 11 17 17 16 15 11 11 12 13 15 12 8 9 13 15 17 18 16 12 8 5 2 6 10 11 5 4 6 9 11 11 10 12 18 21 20 19 20 20 19 19 18
47 44 38 34 27 18 15 17 16 13 17 26 26 27 30 27 19 5 1 4 3 7 10 8 11 11 16 13 9 14 9 6 6 9 15 18 18 13 10 13 12 11 15 15 11 7 9 14 15 15 13 10 11 13 14 15 12 9 11 11 10 14 15 14 10 7 5 3 3 8 11 7 3 5 7 9 10 10 10 11 17 22 21 21 22 21 20 18
47 42 36 31 25 20 21 19 15 15 20 26 27 31 28 17 7 0 2 5 3 9 10 7 13 17 21 19 5 9 12 11 7 6 13 13 15 15 9 9 12 10 12 16 14 10 10 10 13 14 11 10 11 13 15 16 13 10 11 10 8 8 9 9 8 5 5 5 4 7 10 9 5 5 7 9 11 14 13 10 13 21 23 21 21 20 20 18
47 40 33 27 22 20 17 13 15 18 21 27 29 26 18 6 1 1 3 5 7 10 11 11 17 21 23 20 12 9 10 13 12 7 9 9 12 14 9 8 9 8 7 11 13 13 14 11 10 11 12 12 10 12 15 16 15 11 8 8 7 5 4 4 4 5 6 6 5 7 8 7 5 6 8 12 15 18 17 13 14 22 23 19 19 19 19 18
46 38 29 20 17 18 14 13 20 24 23 27 25 14 7 2 1 3 3 8 8 8 11 16 20 21 23 21 14 13 11 9 12 11 7 8 10 11 12 9 7 8 9 8 8 10 13 13 10 10 14 15 12 9 10 12 13 11 7 6 6 3 3 4 3 6 6 6 6 7 8 7 5 5 9 12 14 17 17 14 16 23 23 20 19 19 17 17
46 36 25 17 15 20 21 20 22 22 23 25 16 5 2 2 2 3 5 6 5 10 11 14 20 21 21 18 12 13 15 8 7 12 10 9 10 11 15 14 9 10 8 6 6 8 9 11 14 13 11 15 15 8 7 9 9 11 9 6 7 5 5 6 4 3 4 5 6 7 8 6 4 5 7 9 10 13 17 16 16 24 26 23 22 21 18 18
44 32 24 19 17 20 19 18 18 18 23 20 9 4 3 2 3 8 8 6 8 12 12 15 20 21 17 13 11 15 14 12 10 10 11 8 10 9 12 17 16 11 6 5 6 7 9 9 13 16 8 12 17 12 7 8 8 11 10 6 7 6 4 5 3 3 3 3 6 9 7 4 4 4 5 7 9 8 13 15 14 22 26 22 21 21 19 19
39 28 24 21 19 18 13 10 14 16 17 12 4 4 4 2 4 7 7 7 9 11 14 16 17 16 15 11 13 19 12 11 18 17 10 6 8 9 8 13 17 13 6 6 6 7 10 9 9 14 11 11 18 15 10 9 8 8 8 7 7 6 4 3 3 4 3 1 3 7 5 1 3 5 5 8 11 9 8 12 12 18 24 21 18 20 19 18
38 29 22 19 18 15 10 8 10 14 12 7 3 4 3 4 6 6 6 7 9 12 15 14 11 10 11 10 11 18 15 12 17 14 9 11 9 10 10 10 14 15 11 7 5 6 9 8 8 13 17 16 16 15 14 10 6 6 9 9 6 6 5 3 3 4 4 2 3 3 4 3 4 8 7 8 12 12 11 10 9 16 25 23 18 19 19 17
39 27 17 19 16 9 9 10 9 12 9 4 4 3 2 4 5 6 6 8 9 11 11 9 7 8 10 10 10 16 17 14 14 11 9 13 11 5 4 6 10 11 15 12 8 7 6 6 8 14 19 20 15 15 16 13 8 6 9 9 5 5 6 4 2 3 4 4 4 6 8 6 5 6 8 10 12 12 13 14 11 12 22 22 19 19 20 20
33 21 13 16 11 5 10 11 9 10 6 3 5 4 3 4 5 6 7 9 9 10 8 6 6 7 9 10 10 15 16 12 11 11 10 9 7 12 15 8 7 12 13 13 9 10 8 5 8 14 18 18 14 14 13 14 14 9 7 9 7 5 6 5 4 4 5 5 4 8 11 9 7 7 9 14 16 12 11 15 15 13 18 19 19 20 20 19
23 13 6 4 6 8 14 13 10 8 4 3 4 3 4 5 5 7 9 9 9 8 7 7 7 7 8 10 11 12 11 10 11 10 8 7 8 13 16 13 17 27 26 20 10 10 11 5 5 11 17 15 11 11 10 12 15 12 7 9 8 6 5 5 4 2 4 4 4 6 7 7 7 8 13 17 18 14 9 10 12 13 18 19 18 19 18 17
14 7 5 8 14 15 21 16 8 5 4 4 2 3 5 5 5 8 9 9 7 6 7 9 9 8 8 10 11 9 8 9 11 9 7 9 12 13 13 15 16 24 29 24 13 8 9 7 6 9 13 14 10 10 12 13 13 11 8 8 9 6 4 4 4 3 3 2 3 4 5 5 6 7 13 17 17 15 12 10 9 10 16 19 18 19 18 17
11 4 7 15 23 24 22 12 5 4 3 4 2 4 8 7 7 8 9 9 7 5 7 9 10 8 8 9 8 8 8 8 9 9 7 9 10 7 10 17 19 21 25 22 13 10 7 7 8 8 8 10 12 13 14 15 14 11 8 6 9 8 6 6 5 5 5 3 3 4 3 6 6 4 9 16 16 14 13 12 9 8 13 18 19 19 20 19
8 4 12 23 32 31 17 3 5 6 2 2 5 5 8 8 8 8 8 9 7 5 6 8 10 9 8 9 9 9 8 7 9 9 8 11 10 7 12 22 21 18 17 14 12 14 12 6 9 9 8 7 12 15 15 16 16 13 10 7 8 9 7 6 6 6 6 5 5 3 3 6 6 5 7 14 14 12 12 11 9 7 9 15 19 20 19 19
4 8 22 31 33 26 10 2 6 6 2 6 9 8 9 8 7 7 7 8 7 6 6 6 9 10 8 10 10 10 10 7 7 9 11 13 11 11 18 22 20 18 14 11 11 14 13 6 5 8 8 9 10 14 17 16 15 12 11 9 7 9 10 6 4 6 6 6 6 3 3 5 7 6 2 11 12 11 10 9 9 8 7 13 21 21 18 16
5 8 16 26 31 24 8 3 6 5 5 8 8 9 11 9 8 8 8 8 7 6 6 6 8 9 9 11 10 11 11 6 4 9 11 9 11 16 19 19 18 15 11 10 11 11 10 7 4 5 6 6 8 11 15 15 13 9 10 12 10 10 13 9 4 5 5 7 8 4 3 6 7 7 7 10 11 12 11 10 9 8 7 12 19 20 19 17
7 5 5 17 26 18 6 5 8 7 8 9 9 10 9 8 9 9 9 9 7 5 6 6 8 9 10 10 9 10 10 6 4 7 8 8 11 14 15 18 19 15 13 19 20 12 8 8 5 4 5 4 4 6 8 11 11 8 9 15 14 13 14 11 5 4 4 8 9 6 4 6 5 4 7 7 7 9 10 7 6 5 5 10 15 17 19 18
6 5 4 9 12 9 4 7 10 8 9 10 9 8 8 9 9 8 7 7 6 6 7 6 8 9 9 10 10 10 9 6 4 6 7 9 9 10 15 20 20 18 19 25 24 12 6 7 7 7 7 6 6 5 5 11 13 10 11 15 16 16 13 9 7 5 4 6 6 6 6 4 2 3 6 5 5 5 6 7 8 6 6 9 13 14 17 17
3 4 7 6 5 6 6 7 9 9 11 13 9 8 10 10 9 7 5 5 6 7 6 5 6 8 9 10 10 10 10 9 7 8 9 9 9 12 18 19 16 17 20 21 19 12 6 6 8 10 10 10 12 13 8 10 18 17 15 14 16 19 17 10 9 8 6 7 5 7 8 7 5 2 4 5 5 7 8 9 8 6 8 8 12 16 16 14
2 2 6 7 5 5 6 8 10 12 15 14 9 8 11 11 10 9 6 7 9 7 4 4 7 10 12 11 9 8 9 8 8 7 7 8 9 11 15 17 15 13 14 14 14 10 7 6 7 11 13 12 13 14 12 7 11 17 18 16 15 19 21 15 9 10 9 7 5 7 10 9 6 5 5 6 6 10 10 10 9 8 9 10 10 16 16 13
3 3 4 6 5 6 8 10 12 12 14 12 8 8 9 10 11 10 8 8 9 6 5 6 9 11 13 12 9 7 7 7 7 6 6 7 9 8 9 14 14 11 13 12 12 10 7 6 13 16 14 13 12 10 10 8 3 7 14 18 15 15 21 19 11 9 10 8 7 8 12 10 7 6 5 3 8 11 9 10 10 9 12 12 10 12 13 12
2 1 3 4 5 6 7 9 9 9 10 10 8 7 8 8 10 10 9 10 10 7 6 9 12 11 11 12 9 8 8 8 7 7 8 8 7 5 4 5 9 13 15 11 10 11 9 8 16 16 9 7 8 9 12 11 6 1 5 14 16 14 18 20 14 9 9 8 9 10 10 8 6 6 5 7 11 11 9 10 10 10 11 12 11 11 11 11
2 1 2 3 4 5 5 6 7 7 7 7 7 8 10 11 12 11 8 9 10 8 8 12 13 9 9 11 11 11 10 9 9 10 10 9 6 4 4 4 8 14 14 10 9 11 10 9 12 11 6 5 4 6 13 14 7 4 4 6 9 8 12 17 15 9 7 9 8 8 7 5 5 8 9 10 12 12 11 10 10 9 9 10 10 10 9 10
3 1 1 1 3 4 4 5 6 5 5 6 8 10 12 14 15 12 7 5 7 9 11 12 11 7 7 9 10 12 12 11 13 12 9 9 8 7 7 9 11 11 10 9 9 9 9 9 9 8 7 6 5 5 12 11 6 4 6 3 2 3 5 14 15 10 7 9 8 5 5 7 7 10 10 12 13 12 10 9 9 10 11 11 9 8 9 8
Wind_Direction
3 2 2 2 1 0 358 357 356 354 352 351 348 346 345 343 341 339 337 331 330 327 323 321 318 316 313 314 316 315 319 314 303 286 241 252 256 248 243 235 241 232 203 197 199 191 183 194 197 197 203 201 216 231 193 192 204 179 127 238 246 254 263 271 301 324 318 327 6 12 50 102 121 124 127 134 136 145 157 156 151 139 135 140 142 146 145 144
2 2 1 0 360 358 356 355 353 350 349 349 348 346 345 344 341 339 337 333 331 327 324 321 317 314 311 313 315 318 324 309 292 268 254 258 260 255 248 228 223 229 191 191 204 198 185 190 195 194 202 208 209 218 209 197 193 191 156 212 244 229 227 215 256 294 302 324 347 1 78 125 152 138 142 146 130 138 156 153 149 139 135 136 143 149 148 148
1 0 360 359 358 356 355 353 350 350 349 349 348 345 345 344 342 339 336 333 329 326 324 320 316 312 310 311 315 327 324 307 288 261 270 272 255 246 244 224 206 213 198 191 198 202 196 189 193 192 199 213 207 210 212 196 190 201 171 215 245 222 228 215 233 281 283 327 346 338 21 110 161 143 147 145 135 157 160 151 149 140 138 141 149 153 151 151
360 358 359 358 356 355 354 351 349 350 349 349 348 346 345 344 342 339 335 331 328 326 324 320 317 310 308 310 313 339 320 298 266 249 294 307 246 230 229 224 205 204 205 194 196 207 207 194 193 196 200 212 213 214 213 203 197 183 171 225 240 215 229 215 206 257 272 344 19 312 329 70 138 121 138 144 140 161 158 147 148 142 144 148 150 154 156 154
0 358 358 357 355 354 353 351 349 348 348 348 347 345 344 343 341 338 334 330 328 327 324 321 317 310 309 311 319 13 326 289 215 239 356 353 252 211 214 215 203 202 203 194 201 217 220 207 196 198 203 214 216 217 220 215 205 187 200 224 232 201 217 206 186 229 255 195 132 282 294 122 132 150 156 156 148 156 153 139 143 145 148 154 153 155 161 155
360 358 357 355 354 353 351 350 348 347 346 345 345 344 342 341 340 338 335 330 328 327 324 322 317 313 310 318 90 114 253 266 336 21 16 11 19 182 194 202 201 201 198 193 206 222 228 217 203 201 202 216 218 216 222 216 211 215 209 221 221 188 200 195 176 201 215 207 184 231 259 128 139 169 176 165 149 148 148 136 141 147 150 156 150 154 167 158
360 358 356 354 353 351 350 349 347 346 344 343 343 342 340 339 339 338 336 332 330 327 324 322 317 315 321 48 107 221 221 269 277 261 292 355 23 172 180 188 195 193 190 193 204 217 227 219 210 206 200 212 223 221 227 220 214 224 227 227 206 181 197 190 183 203 194 203 211 198 203 165 146 159 207 169 147 146 141 136 141 145 149 153 147 158 171 159
359 357 355 353 351 350 349 347 345 345 343 342 341 340 338 337 338 337 337 334 330 327 321 317 317 316 342 115 187 247 219 252 260 247 251 276 4 164 179 183 188 184 188 195 201 210 222 222 212 208 204 208 219 222 233 233 217 216 231 235 184 176 213 204 190 217 206 206 211 183 193 197 145 166 200 152 140 145 137 136 141 147 153 155 154 164 173 160
358 356 354 352 350 349 348 346 345 344 342 341 339 338 336 335 337 336 337 335 329 326 318 312 319 314 175 190 250 267 243 252 260 251 242 236 223 169 176 182 185 183 191 201 206 212 217 223 214 213 215 208 214 224 233 237 222 211 220 230 193 177 206 218 205 211 217 223 200 166 210 222 168 186 176 140 143 146 138 141 144 152 156 157 158 166 179 169
356 355 353 351 349 348 347 346 345 343 342 340 338 336 334 335 335 334 334 332 328 321 313 309 315 304 189 226 229 243 253 266 281 246 224 213 193 168 172 182 185 188 198 205 210 217 217 225 217 215 230 223 218 224 231 236 235 224 216 220 221 195 192 205 205 205 216 235 205 179 200 198 179 194 155 144 154 143 140 146 147 155 157 160 161 164 178 177
355 353 352 350 348 347 345 345 344 343 341 338 336 334 333 334 332 333 331 328 325 314 307 304 297 229 209 233 210 234 248 279 317 230 199 198 187 171 175 182 184 190 200 207 212 218 221 230 227 214 222 226 233 234 234 240 249 250 233 217 219 218 210 194 193 204 203 229 216 198 213 186 166 191 162 153 153 143 146 149 151 157 158 164 164 162 169 181
355 353 351 349 347 346 344 343 343 343 340 337 334 332 332 333 331 331 327 323 321 306 304 299 265 209 221 256 228 233 245 268 303 246 189 191 192 189 184 180 186 192 195 203 213 217 223 232 233 227 214 203 235 247 242 241 248 259 256 236 209 211 227 212 211 217 193 200 212 205 232 206 171 176 158 151 147 145 149 149 155 160 159 165 166 164 165 180
355 353 351 349 347 345 344 343 342 341 339 335 332 331 331 331 330 330 325 319 315 296 300 294 230 211 218 256 237 240 260 278 288 285 257 218 197 201 192 183 191 196 196 202 212 216 223 233 237 237 234 220 223 240 265 251 246 254 257 262 224 203 215 215 228 241 212 187 198 205 230 227 208 161 153 151 145 144 149 155 160 163 162 166 168 168 172 180
354 353 350 348 347 345 344 342 341 341 337 333 331 331 331 332 332 330 323 316 312 293 299 297 191 193 218 257 260 259 265 274 282 280 275 247 199 191 194 192 194 196 198 206 217 222 224 232 239 241 241 244 245 250 262 257 250 252 246 240 230 206 208 206 208 228 225 181 167 188 241 228 218 153 157 155 146 149 154 159 162 165 165 165 169 170 176 181
354 353 350 348 347 346 345 343 342 340 336 333 331 330 332 333 331 326 318 312 315 298 300 304 187 198 262 260 271 284 266 259 264 255 256 252 207 184 191 196 196 194 195 205 221 233 232 229 233 239 241 249 259 258 259 265 261 247 235 225 207 192 229 226 206 206 218 192 168 182 224 217 182 151 165 156 149 155 157 161 163 165 167 168 171 169 176 180
354 352 350 347 345 345 344 342 341 339 335 332 330 331 334 332 326 321 317 306 310 295 269 163 197 208 276 272 281 299 259 232 245 239 240 248 229 202 189 189 196 198 195 202 216 232 240 232 222 226 238 242 243 245 252 266 265 239 212 229 217 191 212 239 224 204 208 207 182 190 217 179 183 187 170 156 151 157 159 163 164 163 169 171 168 169 176 176
353 351 350 346 345 344 343 342 340 337 334 331 329 332 332 331 324 321 322 308 306 268 215 231 219 203 248 274 300 305 248 215 229 231 233 236 234 226 197 181 194 202 199 204 210 224 238 231 210 209 221 231 230 223 231 234 240 246 211 217 238 220 207 212 225 214 205 206 188 189 204 199 212 194 163 157 153 156 161 163 164 163 168 171 166 171 178 175
353 351 350 347 344 343 342 341 339 335 333 329 328 331 330 329 325 320 306 224 272 227 229 255 254 221 244 259 281 287 274 240 215 212 224 224 227 235 217 184 185 196 204 207 206 215 228 223 206 204 209 217 222 213 219 218 213 237 225 197 224 240 232 212 217 222 205 200 185 177 192 217 223 176 155 159 151 152 161 161 164 167 168 170 168 173 179 178
353 351 350 348 344 341 341 342 339 334 332 328 329 333 331 326 320 300 224 224 312 259 256 256 219 232 293 290 275 273 289 292 233 201 211 214 217 233 230 202 186 191 202 202 199 202 209 220 209 211 209 206 215 218 222 220 215 233 237 209 201 222 240 222 227 240 204 184 180 173 183 210 219 172 148 151 142 146 160 163 167 171 172 172 171 176 178 179
353 351 350 348 343 341 341 342 340 334 331 328 328 330 335 344 335 253 258 292 279 262 257 258 241 251 280 287 287 287 301 309 278 193 200 205 202 217 231 215 189 192 205 199 193 194 201 223 220 216 210 203 210 219 228 229 229 237 244 238 211 205 223 218 228 240 206 168 178 179 181 200 206 180 150 147 147 151 162 168 170 172 175 173 172 176 176 178
352 350 350 348 344 342 341 342 341 335 332 331 327 327 2 7 352 327 319 295 259 247 249 252 244 248 260 266 277 286 306 312 305 234 203 199 194 197 214 216 197 196 205 200 194 188 201 225 226 217 210 208 208 213 225 232 237 239 246 259 237 212 216 214 225 230 195 169 178 177 185 194 186 185 171 162 165 163 165 172 171 171 176 175 173 175 174 175
351 349 349 347 345 343 340 342 343 338 340 338 334 350 15 358 341 325 320 298 269 252 249 251 243 246 250 251 261 267 276 280 290 283 209 189 194 193 194 209 206 200 194 196 202 187 203 228 224 213 206 213 213 208 215 226 236 239 241 260 260 253 244 218 226 218 171 163 179 175 188 188 170 184 193 175 172 169 171 173 168 171 176 177 175 172 170 169
350 348 348 347 345 343 339 342 344 345 345 336 336 2 359 345 338 331 320 297 288 265 244 243 236 239 239 241 252 251 241 241 262 276 221 186 192 196 197 207 203 204 193 194 206 193 207 226 216 210 207 209 215 214 211 217 231 239 236 243 251 257 268 236 222 202 165 160 169 171 187 190 169 182 198 189 175 167 174 174 164 170 179 180 176 171 171 169
349 348 347 346 344 343 340 341 345 349 342 330 338 359 350 339 337 336 326 281 290 276 248 236 226 234 231 228 239 229 218 226 238 263 229 190 188 195 203 209 198 205 203 197 208 213 223 217 188 207 216 207 211 217 216 213 217 230 234 237 245 246 252 259 246 216 172 159 163 162 178 202 180 183 191 189 180 168 174 177 169 172 180 179 175 171 174 173
349 347 347 346 344 342 339 341 353 347 338 335 353 352 341 337 335 334 330 281 283 277 252 227 212 239 235 226 231 219 206 224 226 246 236 195 187 192 203 211 202 206 205 200 207 221 231 215 177 201 216 211 210 212 216 216 208 220 228 234 245 249 247 257 265 249 178 161 176 164 170 232 200 191 185 178 189 183 173 178 178 175 177 178 176 173 174 176
348 346 347 346 342 342 343 350 345 337 330 337 350 341 334 333 330 328 325 282 282 275 288 151 180 211 224 214 216 217 218 227 224 235 244 211 193 196 207 208 204 208 204 200 211 223 225 221 200 200 207 212 214 212 211 214 219 216 211 222 240 253 255 256 264 260 194 175 186 174 176 232 200 197 194 181 194 193 172 176 181 176 176 178 178 177 176 177
347 345 346 344 341 345 346 322 327 331 327 331 336 333 329 328 325 322 312 237 276 292 59 97 204 121 196 183 171 196 231 179 198 229 236 218 199 199 213 210 200 205 199 195 216 216 202 213 219 208 204 209 214 216 207 206 221 225 196 205 223 242 255 257 264 268 232 173 184 184 176 182 200 202 198 188 195 197 177 176 180 178 178 178 178 177 176 177
345 344 346 343 339 346 338 310 318 320 310 323 328 328 325 322 319 315 306 277 284 352 19 5 349 358 338 303 175 202 260 137 165 223 225 220 206 195 215 219 208 199 199 209 215 198 192 207 217 215 210 209 209 212 207 206 219 227 209 207 209 222 242 254 262 268 261 198 193 195 176 169 229 216 197 191 197 205 191 182 180 181 180 177 179 176 175 177
344 343 346 340 336 350 345 320 307 295 310 325 328 324 319 315 312 298 208 285 282 359 350 348 353 346 337 333 197 213 252 188 182 200 204 220 212 203 222 222 220 208 205 223 227 198 199 205 211 221 221 213 207 203 205 212 218 218 224 229 217 212 224 238 248 265 279 264 219 205 187 178 225 220 198 194 200 206 208 195 180 180 181 178 178 176 174 176
343 342 344 340 334 342 342 327 308 305 325 331 324 319 315 306 309 214 249 285 332 355 342 347 355 344 338 341 307 235 237 238 268 197 188 212 208 207 217 213 229 232 211 224 233 228 225 206 201 220 229 218 208 198 200 211 217 212 217 233 243 226 215 223 230 252 281 260 225 217 202 189 203 217 200 194 198 197 202 204 177 176 183 181 176 175 174 175
342 341 342 337 329 329 326 317 315 312 319 325 320 315 308 294 74 242 278 344 348 347 349 347 348 343 336 336 325 290 248 238 266 251 198 198 201 203 204 200 221 242 233 222 223 229 234 224 203 208 220 224 219 203 196 202 210 212 207 213 239 254 233 226 211 210 243 250 234 240 231 211 214 223 207 198 199 196 197 201 178 172 180 180 175 173 173 175
340 341 340 332 325 317 294 287 307 306 310 322 319 310 303 321 53 238 323 8 348 341 356 344 339 338 330 325 314 305 296 244 238 256 236 194 200 200 200 206 193 205 237 231 208 216 228 234 231 210 206 216 226 213 194 196 200 206 205 193 205 232 221 222 209 201 223 241 236 247 254 240 233 234 213 201 201 197 193 196 179 170 175 177 174 174 172 175
340 340 336 323 313 303 288 287 298 302 314 321 312 290 295 315 7 347 347 5 336 329 343 337 333 331 323 317 315 327 327 308 239 249 252 210 205 203 200 209 202 198 222 232 210 211 217 230 237 229 204 201 219 219 186 192 191 195 203 187 183 196 199 205 214 203 211 226 225 238 255 246 241 252 219 205 210 198 191 197 181 167 173 176 173 174 173 174
339 340 332 320 308 299 289 280 283 299 315 315 300 295 302 268 4 3 347 338 327 325 333 337 332 326 321 317 343 5 348 331 340 307 275 232 209 209 198 205 214 216 214 222 226 218 218 220 221 228 209 178 206 225 198 182 185 196 202 190 184 192 189 189 200 195 198 215 207 215 234 221 199 221 202 213 237 210 188 201 188 166 171 175 171 172 172 173
340 341 334 321 307 302 299 281 285 308 316 308 297 327 326 313 347 358 352 340 328 321 326 333 329 320 322 330 356 7 353 329 347 340 309 278 230 218 199 197 211 220 210 211 227 222 227 231 208 219 226 187 193 215 214 188 187 196 197 200 198 184 167 171 198 186 161 189 207 208 230 220 217 236 201 210 243 242 203 202 192 168 169 172 168 170 174 174
343 343 336 320 306 303 326 344 323 317 310 296 306 337 339 329 337 350 352 342 328 322 324 328 331 324 323 337 348 347 345 343 347 346 333 325 294 229 208 191 196 213 223 224 232 225 231 234 194 198 222 219 196 199 211 204 187 177 195 209 186 159 182 210 214 172 145 200 223 213 256 258 253 267 247 215 224 234 226 213 197 170 169 172 169 169 173 172
340 339 324 308 303 294 326 346 329 308 300 290 301 310 295 303 333 345 341 338 323 320 324 321 339 345 329 334 336 336 344 345 343 348 333 324 325 314 275 205 175 203 231 243 250 241 247 245 207 193 210 222 208 196 208 215 203 176 190 194 146 154 209 219 217 173 170 210 207 203 227 221 208 234 245 237 230 225 218 214 210 175 166 170 170 170 171 170
331 321 292 290 296 301 329 330 309 298 291 275 289 305 303 300 333 347 336 335 322 318 327 317 334 351 333 328 329 336 344 338 335 343 328 318 339 1 0 355 1 351 309 290 278 249 257 262 221 205 203 210 208 198 204 215 217 209 175 160 161 198 204 190 206 193 182 209 213 210 216 211 205 198 200 220 231 230 211 204 206 182 164 167 169 171 170 166
330 318 284 319 12 0 339 322 296 289 272 268 296 329 323 310 344 352 330 325 324 323 326 319 327 337 326 325 325 333 343 334 331 334 328 334 320 333 5 16 348 346 341 329 312 256 257 266 240 219 199 192 197 199 200 204 213 218 184 162 183 205 178 175 205 186 173 199 209 217 216 209 216 201 188 202 217 220 204 192 198 181 167 168 167 168 168 166
335 326 277 344 10 348 330 316 282 261 260 273 301 340 332 332 356 348 325 325 337 329 321 321 325 323 317 321 320 326 337 330 333 327 305 320 316 316 1 20 349 337 335 330 321 285 259 239 257 246 201 185 190 202 199 190 196 210 202 179 184 186 163 179 206 201 191 197 192 209 232 235 231 205 189 193 202 204 192 184 196 179 168 171 166 164 168 169
322 331 275 328 344 328 322 321 278 254 251 267 304 347 345 341 339 337 330 334 338 319 315 317 314 312 314 319 323 331 334 327 326 319 300 315 323 323 357 2 350 341 337 333 332 333 304 239 248 262 222 195 195 196 194 187 188 202 209 188 179 179 174 182 204 209 201 224 221 199 237 249 247 235 195 188 192 193 180 178 191 183 173 173 168 166 168 171
317 322 290 318 329 317 308 320 296 285 249 310 324 344 345 332 326 334 338 337 333 324 328 322 314 316 320 322 331 332 325 321 315 310 317 323 315 311 337 344 345 344 339 325 315 327 327 275 238 246 253 239 209 191 182 183 187 198 214 206 179 179 181 180 192 193 190 229 247 237 267 262 263 267 205 180 178 174 163 166 180 190 183 174 171 171 168 168
330 309 298 312 329 327 308 260 305 302 342 337 330 340 337 319 316 331 338 336 334 334 338 330 325 331 329 321 323 319 313 315 317 319 327 321 310 317 329 336 341 340 337 324 320 334 335 312 248 242 255 274 246 196 174 177 185 196 213 214 197 188 185 177 173 171 174 207 223 237 267 262 287 312 137 146 147 142 148 161 174 190 189 169 169 170 165 164
308 299 300 318 341 353 344 308 322 314 321 326 328 337 328 311 318 336 339 331 331 343 343 331 328 329 321 314 313 316 322 329 323 322 326 315 309 320 325 331 336 335 330 327 329 333 322 305 307 276 239 251 246 195 172 176 186 195 205 209 217 201 180 176 180 164 173 201 195 188 246 253 283 338 50 99 120 133 155 172 176 182 175 163 166 166 166 166
306 290 290 326 343 354 351 345 340 316 317 325 322 325 320 312 328 339 332 321 323 347 341 324 324 320 314 317 317 321 339 4 341 314 318 312 308 315 322 327 327 321 312 316 320 317 287 274 294 290 240 230 229 192 175 177 183 196 198 200 217 215 187 176 176 163 188 208 192 181 226 261 286 14 60 81 106 136 160 156 142 149 135 151 166 166 168 170
324 318 323 337 340 339 343 357 350 339 340 333 318 319 322 316 319 323 317 315 326 342 333 319 324 323 319 326 325 322 341 359 322 299 310 316 313 314 318 319 316 312 311 316 321 320 273 259 260 254 250 246 259 271 207 174 173 191 200 195 207 218 206 176 165 184 185 183 196 196 184 206 250 89 100 123 119 114 124 101 90 92 92 131 166 170 169 170
327 323 335 346 331 331 348 356 356 350 332 322 321 331 328 316 310 314 316 325 333 333 325 318 324 322 322 330 329 326 335 331 305 301 310 313 316 313 314 314 310 314 320 321 326 326 294 280 274 264 264 258 267 289 279 189 175 180 195 202 199 206 216 198 174 189 162 139 205 220 158 159 220 187 149 183 150 105 105 100 95 100 91 114 161 170 166 162
337 318 349 360 338 330 343 335 332 325 313 314 321 320 318 317 317 320 322 324 323 326 329 316 315 317 320 331 333 324 327 319 304 312 316 316 326 324 321 320 317 330 341 329 328 331 299 293 313 302 296 289 277 282 287 246 182 174 189 210 203 195 209 214 185 172 156 143 208 209 153 156 212 213 215 219 158 121 119 112 100 98 89 90 136 154 150 145
337 294 343 9 335 302 306 302 304 307 308 312 311 310 324 332 325 322 325 320 316 329 349 318 308 316 321 327 327 313 317 317 309 317 315 312 326 330 328 323 319 345 359 334 324 331 307 313 336 325 305 295 291 287 291 293 250 169 186 208 218 199 199 211 208 172 158 163 193 178 158 171 193 189 205 184 127 120 117 110 100 97 94 88 101 123 125 132
343 308 339 350 309 288 291 294 303 311 310 306 306 317 333 330 318 317 321 317 311 322 333 307 303 315 321 321 315 306 314 314 299 299 302 305 321 323 321 319 310 323 339 335 324 323 318 325 330 328 314 293 309 318 302 289 279 275 188 202 219 214 195 202 215 194 157 172 191 166 156 181 180 147 126 97 99 95 84 88 91 95 103 103 105 109 108 118
272 123 6 330 305 299 299 303 311 311 304 305 316 328 331 323 318 320 322 317 312 313 314 308 309 316 319 315 309 307 313 306 288 284 286 287 291 286 281 285 296 310 322 328 319 315 319 324 324 333 337 310 325 311 290 291 292 290 274 214 214 226 200 193 205 210 170 172 182 149 144 184 153 115 101 87 85 80 72 72 73 73 78 90 107 119 119 122
284 171 110 321 297 293 293 300 304 299 298 310 322 327 322 315 319 331 337 318 308 308 313 317 318 314 309 307 307 313 317 307 296 291 284 277 266 249 251 263 270 282 296 306 308 308 315 320 329 345 334 321 344 296 276 300 325 270 253 219 126 332 249 192 191 213 191 166 171 161 180 198 149 109 97 86 79 76 76 74 74 74 65 62 77 97 105 110